DELTA 1 DEB, 21570

Orbit data source: Space-Track

DELTA 1 DEB, 21570 is space debris in SSO originally from a launch on Thu, 12 Jun 1975 UTC launched from the Air Force Western Test Range (AFWTR). Debris objects in space refer to the collection of defunct objects orbiting the Earth. Examples of debris include non-operational satellites, rocket bodies, and fragments generated from explosions, collisions, or faulty payload assembly.

Loading next visibility...
Identifier
21570, 1975-052HQ
Orbit
SSO
Country
Flag of USUS
Related business
Manufacturer
Unknown
Mission
Spacecraft
Bus & Motor
Unknown
Mass
Unknown
Launch date (UTC)
1975-06-12 (51 years ago)
Launch vehicle
Unknown
Launch site
Air Force Western Test Range (AFWTR)
Object type
Payload
Rocket body
Debris
Shape & HBR
Unknown shape, 0.1 m
Radar Cross Section
Small (<0.1 m²)

Expand to show TLE details & history
Last TLE update: 1 day ago

TLE from 1 day ago
0 DELTA 1 DEB
1 21570U 75052HQ  26124.04588897  .00001492  00000-0  80446-2 0  9998
2 21570  99.5368 315.7917 0694986 169.3704 321.5545 12.09419175342735
Epoch: 2026-05-04T01:06Z
TLE epoch observation values (Epoch: 2026-05-04T01:06:04.807Z)
Latitude
53.38511°
Longitude
-89.66967°
Altitude
1,227.36 km
Speed
7.433 km/s
True Right ascension
09h 55m 09s
True Declination
53° 13' 50"
Sunlit
Object was in daylight at epoch
Visualization orbit readout
Latitude
Unknown
Longitude
Unknown
Altitude
Unknown
Speed
Unknown
Apparent Right ascension
Unknown
Apparent Declination
Unknown
Sunlit
N/A
Visualization observer readout
Local Sidereal Time
10:36:47
Azimuth
Unknown
Elevation
Unknown
Doppler factor
Unknown
Orbital elements
Apogee altitude
2,193.43 km
Perigee altitude
1,079.428 km
Semi-major axis
8,014.566 km
Eccentricity
0.0695
Inclination
99.5368°
RAAN
315.7917°
Arg. of periapsis
169.3704°
True anomaly
316.25005°
Mean anomaly
321.5545°
Eccentric anomaly
318.93888°
Mean motion
3.02498 °/min
Orbital period
119.01 mins
BSTAR
0.0080446
Loading maneuver chart data...
Computing Atmospheric mass density...

Documentation

Showing up to 5 results
|